When you browse on this site, cookies collect data to enhance your experience and personalize the content and advertising you see.
Visit our Privacy Policy to learn more. By continuing to use the site, you agree to this use of cookies and data.
  • în România
  • Lista ţărilor
  • Pe 7 zile
  • Temperatura apei
  • Hartă satelitară
  • Meteo pe hartă
  • Widget-uri
  • user-avatar
    Intrare

    Meteo pe oră la Lago d'Arno

    Astăzi, 16 Februarie, Sâmbătă

    Timp Temperatura Precipitaţii Vânt Presiune Umiditate
    00:00 -1°C° 0 mm 1 m/s 612 mmHg 64%
    01:00 -1°C° 0 mm 1 m/s 612 mmHg 63%
    02:00 -1°C° 0 mm 1 m/s 612 mmHg 61%
    03:00 -2°C° 0 mm 1 m/s 612 mmHg 60%
    04:00 -2°C° 0 mm 1 m/s 612 mmHg 59%
    05:00 -4°C° 0 mm 2 m/s 612 mmHg 57%
    06:00 -4°C° 0 mm 2 m/s 612 mmHg 54%
    07:00 -4°C° 0 mm 2 m/s 612 mmHg 52%
    08:00 -2°C° 0 mm 2 m/s 612 mmHg 50%
    09:00 +2°C° 0 mm 1 m/s 613 mmHg 48%
    10:00 +4°C° 0 mm 1 m/s 614 mmHg 47%
    11:00 +5°C° 0 mm 1 m/s 614 mmHg 47%
    12:00 +6°C° 0 mm 1 m/s 614 mmHg 47%
    13:00 +6°C° 0 mm 0 m/s 614 mmHg 48%
    14:00 +5°C° 0 mm 0 m/s 614 mmHg 51%
    15:00 +5°C° 0 mm 0 m/s 613 mmHg 54%
    16:00 +4°C° 0 mm 0 m/s 613 mmHg 57%
    17:00 +4°C° 0 mm 1 m/s 612 mmHg 58%
    18:00 +2°C° 0 mm 1 m/s 612 mmHg 59%
    19:00 -2°C° 0 mm 2 m/s 611 mmHg 59%
    20:00 -2°C° 0 mm 2 m/s 611 mmHg 55%
    21:00 -2°C° 0 mm 2 m/s 611 mmHg 51%
    22:00 -2°C° 0 mm 2 m/s 611 mmHg 47%
    23:00 -2°C° 0 mm 2 m/s 611 mmHg 44%

    Mâine, 17 Februarie, Duminică

    Timp Temperatura Precipitaţii Vânt Presiune Umiditate
    00:00 -3°C° 0 mm 2 m/s 611 mmHg 42%
    01:00 -3°C° 0 mm 2 m/s 611 mmHg 39%
    02:00 -3°C° 0 mm 2 m/s 611 mmHg 37%
    03:00 -3°C° 0 mm 2 m/s 610 mmHg 36%
    04:00 -3°C° 0 mm 2 m/s 610 mmHg 35%
    05:00 -3°C° 0 mm 2 m/s 610 mmHg 34%
    06:00 -3°C° 0 mm 2 m/s 610 mmHg 34%
    07:00 -3°C° 0 mm 2 m/s 610 mmHg 33%
    08:00 0°C° 0 mm 1 m/s 611 mmHg 35%
    09:00 +2°C° 0 mm 1 m/s 611 mmHg 36%
    10:00 +4°C° 0 mm 1 m/s 612 mmHg 38%
    11:00 +5°C° 0 mm 1 m/s 612 mmHg 39%
    12:00 +6°C° 0 mm 1 m/s 612 mmHg 39%
    13:00 +7°C° 0 mm 1 m/s 612 mmHg 40%
    14:00 +7°C° 0 mm 1 m/s 612 mmHg 43%
    15:00 +5°C° 0 mm 0 m/s 611 mmHg 46%
    16:00 +5°C° 0 mm 0 m/s 611 mmHg 49%
    17:00 +4°C° 0 mm 1 m/s 610 mmHg 51%
    18:00 +2°C° 0 mm 1 m/s 610 mmHg 54%
    19:00 0°C° 0 mm 1 m/s 609 mmHg 56%
    20:00 0°C° 0 mm 1 m/s 609 mmHg 54%
    21:00 0°C° 0 mm 1 m/s 609 mmHg 52%
    22:00 -2°C° 0 mm 2 m/s 609 mmHg 50%
    23:00 -3°C° 0 mm 2 m/s 609 mmHg 49%

    Poimâine, 18 Februarie, Luni

    Timp Temperatura Precipitaţii Vânt Presiune Umiditate
    00:00 -3°C° 0 mm 2 m/s 609 mmHg 48%
    01:00 -1°C° 0 mm 1 m/s 609 mmHg 46%
    02:00 -3°C° 0 mm 2 m/s 608 mmHg 44%
    03:00 -3°C° 0 mm 2 m/s 608 mmHg 42%
    04:00 -3°C° 0 mm 2 m/s 608 mmHg 40%
    05:00 -3°C° 0 mm 2 m/s 608 mmHg 38%
    06:00 -3°C° 0 mm 2 m/s 608 mmHg 36%
    07:00 -2°C° 0 mm 1 m/s 608 mmHg 34%
    08:00 0°C° 0 mm 1 m/s 608 mmHg 34%
    09:00 +2°C° 0 mm 1 m/s 609 mmHg 34%
    10:00 +3°C° 0 mm 0 m/s 610 mmHg 34%
    11:00 +4°C° 0 mm 1 m/s 609 mmHg 35%
    12:00 +5°C° 0 mm 1 m/s 609 mmHg 37%
    13:00 +6°C° 0 mm 1 m/s 609 mmHg 39%
    14:00 +5°C° 0 mm 1 m/s 609 mmHg 43%
    15:00 +5°C° 0 mm 1 m/s 609 mmHg 48%
    16:00 +4°C° 0 mm 1 m/s 608 mmHg 52%
    17:00 +3°C° 0 mm 1 m/s 608 mmHg 57%
    18:00 +1°C° 0 mm 1 m/s 607 mmHg 62%
    19:00 -1°C° 0 mm 1 m/s 607 mmHg 67%
    20:00 -1°C° 0 mm 1 m/s 607 mmHg 64%
    21:00 -1°C° 0 mm 1 m/s 607 mmHg 61%
    22:00 -1°C° 0 mm 1 m/s 607 mmHg 58%
    23:00 -1°C° 0 mm 1 m/s 607 mmHg 55%

    19 Februarie, Marţi

    Timp Temperatura Precipitaţii Vânt Presiune Umiditate
    00:00 -2°C° 0 mm 1 m/s 607 mmHg 52%
    01:00 -2°C° 0 mm 1 m/s 607 mmHg 48%
    02:00 -2°C° 0 mm 1 m/s 607 mmHg 45%
    03:00 -2°C° 0 mm 1 m/s 607 mmHg 41%
    04:00 -2°C° 0 mm 1 m/s 606 mmHg 38%
    05:00 -2°C° 0 mm 1 m/s 606 mmHg 35%
    06:00 -2°C° 0 mm 1 m/s 606 mmHg 33%
    07:00 -3°C° 0 mm 1 m/s 606 mmHg 31%
    08:00 -1°C° 0 mm 1 m/s 607 mmHg 30%
    09:00 0°C° 0 mm 0 m/s 608 mmHg 30%
    10:00 +1°C° 0 mm 0 m/s 609 mmHg 30%
    11:00 +2°C° 0 mm 0 m/s 609 mmHg 33%
    12:00 +4°C° 0 mm 1 m/s 609 mmHg 35%
    13:00 +4°C° 0 mm 1 m/s 609 mmHg 38%
    14:00 +4°C° 0 mm 1 m/s 609 mmHg 43%
    15:00 +4°C° 0 mm 1 m/s 608 mmHg 48%
    16:00 +3°C° 0 mm 1 m/s 608 mmHg 53%
    17:00 +2°C° 0 mm 1 m/s 608 mmHg 60%
    18:00 0°C° 0 mm 1 m/s 607 mmHg 67%
    19:00 -1°C° 0 mm 1 m/s 607 mmHg 74%
    20:00 -2°C° 0 mm 1 m/s 607 mmHg 71%
    21:00 -2°C° 0 mm 1 m/s 608 mmHg 68%
    22:00 -2°C° 0 mm 1 m/s 608 mmHg 65%
    23:00 -2°C° 0 mm 1 m/s 608 mmHg 63%

    20 Februarie, Miercuri

    Timp Temperatura Precipitaţii Vânt Presiune Umiditate
    00:00 -2°C° 0 mm 1 m/s 608 mmHg 62%
    01:00 -2°C° 0 mm 1 m/s 608 mmHg 60%
    02:00 -2°C° 0 mm 1 m/s 608 mmHg 58%
    03:00 -3°C° 0 mm 1 m/s 608 mmHg 56%
    04:00 -3°C° 0 mm 1 m/s 608 mmHg 54%
    05:00 -3°C° 0 mm 1 m/s 608 mmHg 52%
    06:00 -3°C° 0 mm 1 m/s 608 mmHg 50%
    07:00 -3°C° 0 mm 1 m/s 608 mmHg 47%
    08:00 -1°C° 0 mm 1 m/s 609 mmHg 44%
    09:00 -1°C° 0 mm 0 m/s 610 mmHg 42%
    10:00 +1°C° 0 mm 0 m/s 611 mmHg 39%
    11:00 +2°C° 0 mm 0 m/s 611 mmHg 39%
    12:00 +3°C° 0 mm 1 m/s 611 mmHg 40%
    13:00 +4°C° 0 mm 1 m/s 611 mmHg 41%
    14:00 +4°C° 0 mm 1 m/s 611 mmHg 45%
    15:00 +4°C° 0 mm 1 m/s 611 mmHg 48%
    16:00 +3°C° 0 mm 1 m/s 610 mmHg 52%
    17:00 +2°C° 0 mm 1 m/s 610 mmHg 58%
    18:00 0°C° 0 mm 1 m/s 609 mmHg 64%
    19:00 -1°C° 0 mm 1 m/s 609 mmHg 70%
    20:00 -1°C° 0 mm 1 m/s 609 mmHg 66%
    21:00 -2°C° 0 mm 1 m/s 609 mmHg 61%
    22:00 -2°C° 0 mm 1 m/s 610 mmHg 57%
    23:00 -2°C° 0 mm 1 m/s 610 mmHg 54%

    21 Februarie, Joi

    Timp Temperatura Precipitaţii Vânt Presiune Umiditate
    00:00 -2°C° 0 mm 1 m/s 610 mmHg 51%
    01:00 -2°C° 0 mm 1 m/s 609 mmHg 48%
    02:00 -2°C° 0 mm 1 m/s 609 mmHg 46%
    03:00 -2°C° 0 mm 1 m/s 609 mmHg 45%
    04:00 -2°C° 0 mm 1 m/s 609 mmHg 43%
    05:00 -4°C° 0 mm 2 m/s 609 mmHg 42%
    06:00 -4°C° 0 mm 2 m/s 609 mmHg 41%
    07:00 -4°C° 0 mm 2 m/s 609 mmHg 40%
    08:00 0°C° 0 mm 1 m/s 610 mmHg 39%
    09:00 +1°C° 0 mm 1 m/s 611 mmHg 38%
    10:00 +2°C° 0 mm 0 m/s 611 mmHg 36%
    11:00 +3°C° 0 mm 0 m/s 611 mmHg 37%
    12:00 +5°C° 0 mm 1 m/s 612 mmHg 38%
    13:00 +6°C° 0 mm 1 m/s 612 mmHg 39%
    14:00 +5°C° 0 mm 1 m/s 611 mmHg 43%
    15:00 +5°C° 0 mm 1 m/s 611 mmHg 47%
    16:00 +5°C° 0 mm 1 m/s 610 mmHg 51%
    17:00 +3°C° 0 mm 1 m/s 610 mmHg 58%
    18:00 +2°C° 0 mm 1 m/s 609 mmHg 64%
    19:00 0°C° 0 mm 1 m/s 609 mmHg 71%
    20:00 0°C° 0 mm 1 m/s 609 mmHg 69%
    21:00 0°C° 0 mm 1 m/s 609 mmHg 67%
    22:00 0°C° 0 mm 1 m/s 609 mmHg 65%
    23:00 -2°C° 0 mm 2 m/s 609 mmHg 64%
    Arată mai mult